Regional Weather Roundup
Issued by NWS Northern Indiana

Home | Current Version | Previous Version | Text Only | Print | Product List | Glossary On
Versions: 1 2 3 4 5 6 7 8 9 10 11 12 13 14 15 16 17 18 19 20 21 22 23 24 25 26 27 28 29 30 31 32 33 34 35 36 37 38 39 40 41 42 43 44 45 46 47 48 49 50
000
ASUS43 KIWX 250810
RWRIWX

KIWX WEATHER ROUNDUP
NATIONAL WEATHER SERVICE NORTHERN INDIANA
400 AM EDT FRI APR 25 2014

NOTE: "FAIR" INDICATES FEW OR NO CLOUDS BELOW 12,000 FEET WITH NO
SIGNIFICANT WEATHER AND/OR OBSTRUCTIONS TO VISIBILITY.

* THESE STATIONS ARE NOT UNDER NWS QUALITY CONTROL. THEY ALSO MAY NOT
  REPORT WEATHER SUCH AS PRECIPITATION OR FOG.

INZ001>027-250900-
NORTHERN INDIANA

CITY           SKY/WX    TMP DP  RH WIND       PRES   REMARKS
GARY*          RAIN      50  44  78 W3        29.64R
VALPARAISO     LGT RAIN  48  40  73 E7        29.64S
MICHIGAN CITY* LGT RAIN  50  34  53 SE5       29.65R
LAPORTE*       LGT RAIN  47  37  70 E6        29.65S
SOUTH BEND     LGT RAIN  48  35  60 SE10      29.66F
GOSHEN         CLOUDY    46  36  68 E12       29.66F
MONTICELLO*    LGT RAIN  52  44  75 SE3       29.61S
LOGANSPORT*    RAIN      48  41  76 SE5       29.63S
ROCHESTER*     DRIZZLE   52  34  50 SE5       29.64S
WARSAW*        LGT RAIN  46  34  61 E5        29.65F
ANGOLA*        CLOUDY    46  28  49 E6        29.69F
FORT WAYNE     CLOUDY    46  33  60 E5        29.67F
HUNTINGTON*    CLOUDY    51  30  44 E3        29.65F
PERU/GRISSOM   LGT RAIN  52  40  64 E7        29.63F
MARION*        CLOUDY    57  28  33 SE9       29.64F

$$
INZ028>050-250900-
CENTRAL INDIANA

CITY           SKY/WX    TMP DP  RH WIND       PRES   REMARKS
LAFAYETTE      LGT RAIN  52  49  89 SE3       29.60F
KOKOMO*          N/A    N/A N/A N/A MISG        N/A
MUNCIE*        CLOUDY    58  28  32 S9        29.64F
INDIANAPOLIS   LGT RAIN  53  51  93 SE7       29.62F

$$
MIZ043>046-050>051-056>058-064>065-071>073-077>080-250900-
SOUTHWEST LOWER MICHIGAN

CITY           SKY/WX    TMP DP  RH WIND       PRES   REMARKS
BATTLE CREEK   LGT RAIN  45  31  58 E8        29.70F
BENTON HARBOR  CLOUDY    47  36  65 SE8       29.66R
COLDWATER*     RAIN      47  31  54 E3        29.72S
HILLSDALE*     CLOUDY    46  30  53 E9        29.71F
HOLLAND        LGT RAIN  44  37  76 E12       29.71R
GRAND RAPIDS   RAIN      43  34  70 E10       29.72F
KALAMAZOO      CLOUDY    46  32  58 E8        29.68F
STURGIS*       LGT RAIN  43  36  75 E13       29.66F
THREE RIVERS*  CLOUDY    46  32  59 E13       29.66F

$$
OHZ001>008-015>018-024>025-250900-
NORTHWEST OHIO

CITY           SKY/WX    TMP DP  RH WIND       PRES   REMARKS
WAUSEON*       FAIR      46  32  57 E10       29.71F
DEFIANCE       CLOUDY    46  30  53 E6        29.69F
FINDLAY        MOCLDY    50  28  42 SE10      29.68F
TOLEDO EXPRESS CLOUDY    45  32  60 E7        29.72F
TOLEDO METCALF CLOUDY    46  36  68 NE9       29.73F
LIMA           MOCLDY    54  26  34 SE12      29.68F

$$
&&



USA.gov is the U.S. government's official web portal to all federal, state and local government web resources and services.